Find Local Weather

World > North America > United States > New Jersey

Fairfield, New Jersey Regional Weather

Lat: 40.88N, Lon: 74.31W
Wx Zone: NJZ105
Warning FLW WEATHER ALERT - (More Info. Click Here) Warning
Feedback
Expires:201811181900;;500889
ASUS41 KOKX 181814
RWROKX

Regional Weather Roundup
National Weather Service New York NY
100 PM EST SUN NOV 18 2018

Note: "FAIR" indicates few or no clouds below 12,000 feet with no
significant weather and/or obstructions to visibility.


NJZ001-105-106-008-010-013-015-019>022-104-181900-
New Jersey
  
CITY           SKY/WX    TMP DP  RH WIND       PRES   REMARKS
Newark/Liberty CLOUDY    42  27  55 S5        30.33F                  
Teterboro      CLOUDY    43  27  53 CALM      30.33F                  
Caldwell       CLOUDY    41  26  55 CALM      30.33F                  
Somerville     CLOUDY    42  26  53 CALM      30.32F                  
Linden         CLOUDY    42  26  52 CALM      30.34F                  
Perth Amboy      N/A     41 N/A N/A E5          N/A                   
Sussex         CLOUDY    38  24  57 CALM      30.30F                  
Andover          N/A     38  22  52 CALM      30.30F                  
Trenton        CLOUDY    43  29  57 E5        30.32F                  
Millville      FAIR      49  33  54 SW3       30.32F                  
Atlantic City  FAIR      50  39  66 S5        30.32F                  
Wrightstown    PTSUNNY   48  32  53 VRB1      30.36F                  
Toms River     FAIR      48  35  60 S5        30.32F                  
Belmar         CLOUDY    44  30  57 SE3       30.33F                  
$$
 

SKY/WX - Weather  TMP - Temperature  DP - Dew Point  RH - Relative Humidity
WIND - Wind Direction/Speed PRES - Barometric Pressure